AAL9077 KLAX-KSFO

Flight info

Callsign AAL9077
Flight time 0h 55m
Altitude 36000
Route SUMMR2 STOKD SERFR SERFR4
Aircraft MD83/M-SDFGIRWY/S

Departure

Time 2026-04-23 14:32
Airport Los Angeles International Airport (KLAX)

Arrival

Time 2026-04-23 15:27
Airport San Francisco International Airport (KSFO)
Time Latitude Longitude Altitude Speed Heading
2026-04-23 13:52 33.93955 -118.40654 122 ft 0 kts 353°
2026-04-23 14:21 33.93941 -118.40652 121 ft 4 kts 353°
2026-04-23 14:22 33.93918 -118.40649 125 ft 4 kts
2026-04-23 14:22 33.93900 -118.40660 123 ft 4 kts 57°
2026-04-23 14:22 33.93891 -118.40689 122 ft 4 kts 81°
2026-04-23 14:22 33.93889 -118.40703 122 ft 1 kts 83°
2026-04-23 14:23 33.93889 -118.40704 122 ft 0 kts 83°
2026-04-23 14:26 33.93889 -118.40701 126 ft 1 kts 83°
2026-04-23 14:26 33.93892 -118.40678 126 ft 8 kts 83°
2026-04-23 14:27 33.93900 -118.40600 123 ft 10 kts 84°
2026-04-23 14:27 33.93873 -118.40534 123 ft 9 kts 156°
2026-04-23 14:27 33.93829 -118.40493 123 ft 8 kts 95°
2026-04-23 14:27 33.93835 -118.40422 124 ft 9 kts 83°
2026-04-23 14:28 33.93847 -118.40308 126 ft 18 kts 83°
2026-04-23 14:28 33.93865 -118.40138 123 ft 23 kts 83°
2026-04-23 14:28 33.93886 -118.39937 123 ft 24 kts 83°
2026-04-23 14:28 33.93906 -118.39737 126 ft 24 kts 83°
2026-04-23 14:29 33.93925 -118.39542 126 ft 23 kts 83°
2026-04-23 14:29 33.93945 -118.39352 124 ft 23 kts 83°
2026-04-23 14:29 33.93964 -118.39164 125 ft 22 kts 83°
2026-04-23 14:29 33.93983 -118.38980 126 ft 22 kts 83°
2026-04-23 14:30 33.94001 -118.38799 125 ft 22 kts 82°
2026-04-23 14:30 33.94020 -118.38621 125 ft 21 kts 83°
2026-04-23 14:30 33.94038 -118.38437 124 ft 24 kts 83°
2026-04-23 14:30 33.94059 -118.38227 126 ft 27 kts 83°
2026-04-23 14:31 33.94074 -118.38079 126 ft 11 kts 82°
2026-04-23 14:31 33.94063 -118.38014 123 ft 10 kts 140°
2026-04-23 14:31 33.93994 -118.38007 124 ft 10 kts 229°
2026-04-23 14:31 33.93977 -118.38095 126 ft 12 kts 262°
2026-04-23 14:32 33.93956 -118.38319 126 ft 55 kts 263°
2026-04-23 14:32 33.93877 -118.39073 126 ft 123 kts 263°
2026-04-23 14:32 33.93747 -118.40309 172 ft 169 kts 262°
2026-04-23 14:32 33.93568 -118.41729 789 ft 177 kts 260°
2026-04-23 14:33 33.93345 -118.43185 1609 ft 177 kts 259°
2026-04-23 14:33 33.93132 -118.44616 2357 ft 180 kts 262°
2026-04-23 14:33 33.92919 -118.46187 2793 ft 203 kts 262°
2026-04-23 14:33 33.92668 -118.47927 3306 ft 221 kts 262°
2026-04-23 14:34 33.92376 -118.49852 3740 ft 244 kts 262°
2026-04-23 14:34 33.92043 -118.51915 4383 ft 256 kts 261°
2026-04-23 14:34 33.91678 -118.54039 5063 ft 267 kts 261°
2026-04-23 14:34 33.91294 -118.56289 5050 ft 275 kts 261°
2026-04-23 14:35 33.90912 -118.58532 4981 ft 271 kts 261°
2026-04-23 14:35 33.90529 -118.60778 4948 ft 284 kts 261°
2026-04-23 14:35 33.90129 -118.63142 5727 ft 280 kts 261°
2026-04-23 14:35 33.89752 -118.65341 6939 ft 270 kts 261°
2026-04-23 14:36 33.89372 -118.67566 7674 ft 273 kts 261°
2026-04-23 14:36 33.89078 -118.69819 8441 ft 271 kts 272°
2026-04-23 14:36 33.89217 -118.72066 9238 ft 269 kts 279°
2026-04-23 14:36 33.89462 -118.74302 10012 ft 269 kts 280°
2026-04-23 14:37 33.90023 -118.76493 10270 ft 287 kts 302°
2026-04-23 14:37 33.91397 -118.78355 10457 ft 309 kts 316°
2026-04-23 14:37 33.93038 -118.80152 10653 ft 329 kts 316°
2026-04-23 14:37 33.94758 -118.82073 10930 ft 344 kts 315°
2026-04-23 14:38 33.96506 -118.84073 11603 ft 347 kts 314°
2026-04-23 14:38 33.98232 -118.86099 12422 ft 346 kts 313°
2026-04-23 14:38 33.99931 -118.88159 13200 ft 347 kts 311°
2026-04-23 14:38 34.01620 -118.90265 13937 ft 350 kts 310°
2026-04-23 14:39 34.03277 -118.92371 14631 ft 352 kts 310°
2026-04-23 14:39 34.04962 -118.94533 15264 ft 356 kts 309°
2026-04-23 14:39 34.06660 -118.96724 15881 ft 360 kts 309°
2026-04-23 14:39 34.08381 -118.98947 16496 ft 364 kts 309°
2026-04-23 14:40 34.10118 -119.01189 17145 ft 367 kts 309°
2026-04-23 14:40 34.11872 -119.03443 17813 ft 369 kts 309°
2026-04-23 14:40 34.13642 -119.05709 18414 ft 373 kts 309°
2026-04-23 14:40 34.15434 -119.08001 18917 ft 377 kts 309°
2026-04-23 14:41 34.17240 -119.10315 19429 ft 379 kts 309°
2026-04-23 14:41 34.19058 -119.12642 19931 ft 382 kts 309°
2026-04-23 14:41 34.20892 -119.14996 20424 ft 385 kts 309°
2026-04-23 14:41 34.22732 -119.17362 20882 ft 389 kts 309°
2026-04-23 14:42 34.24589 -119.19753 21349 ft 392 kts 309°
2026-04-23 14:42 34.26461 -119.22161 21835 ft 394 kts 309°
2026-04-23 14:42 34.28354 -119.24594 22318 ft 397 kts 309°
2026-04-23 14:42 34.30225 -119.27019 22619 ft 401 kts 308°
2026-04-23 14:43 34.32113 -119.29511 23137 ft 403 kts 309°
2026-04-23 14:43 34.34068 -119.31960 23595 ft 406 kts 310°
2026-04-23 14:43 34.36038 -119.34424 23959 ft 409 kts 309°
2026-04-23 14:43 34.37999 -119.36930 24336 ft 411 kts 309°
2026-04-23 14:44 34.39958 -119.39461 24688 ft 414 kts 309°
2026-04-23 14:44 34.41932 -119.42021 25023 ft 416 kts 309°
2026-04-23 14:44 34.43918 -119.44586 25474 ft 417 kts 309°
2026-04-23 14:44 34.45898 -119.47175 25873 ft 419 kts 308°
2026-04-23 14:45 34.47907 -119.49750 26246 ft 422 kts 309°
2026-04-23 14:45 34.49930 -119.52339 26561 ft 425 kts 309°
2026-04-23 14:45 34.51951 -119.54969 26890 ft 427 kts 309°
2026-04-23 14:45 34.53988 -119.57588 27378 ft 426 kts 309°
2026-04-23 14:46 34.56006 -119.60216 27891 ft 424 kts 308°
2026-04-23 14:46 34.58001 -119.62834 28434 ft 421 kts 309°
2026-04-23 14:46 34.60000 -119.65436 28938 ft 420 kts 309°
2026-04-23 14:46 34.62009 -119.68009 29279 ft 420 kts 308°
2026-04-23 14:47 34.63939 -119.70599 29673 ft 418 kts 308°
2026-04-23 14:47 34.65932 -119.73169 30083 ft 418 kts 310°
2026-04-23 14:47 34.67957 -119.75723 30402 ft 418 kts 309°
2026-04-23 14:47 34.69956 -119.78293 30764 ft 417 kts 309°
2026-04-23 14:48 34.71927 -119.80858 31174 ft 414 kts 309°
2026-04-23 14:48 34.73900 -119.83399 31545 ft 412 kts 310°
2026-04-23 14:48 34.75892 -119.85923 31810 ft 413 kts 308°
2026-04-23 14:48 34.77804 -119.88498 32329 ft 406 kts 307°
2026-04-23 14:49 34.79662 -119.91005 32744 ft 404 kts 308°
2026-04-23 14:49 34.81551 -119.93531 32902 ft 403 kts 307°
2026-04-23 14:49 34.83408 -119.96092 33162 ft 403 kts 309°
2026-04-23 14:49 34.85363 -119.98545 33400 ft 404 kts 310°
2026-04-23 14:50 34.87333 -120.00985 33676 ft 403 kts 309°
2026-04-23 14:50 34.89271 -120.03451 33997 ft 402 kts 309°
2026-04-23 14:50 34.91170 -120.05943 34226 ft 401 kts 308°
2026-04-23 14:50 34.93051 -120.08446 34543 ft 398 kts 308°
2026-04-23 14:51 34.94865 -120.10854 34919 ft 394 kts 308°
2026-04-23 14:51 34.96722 -120.13311 35170 ft 393 kts 308°
2026-04-23 14:51 34.98575 -120.15759 35335 ft 394 kts 308°
2026-04-23 14:51 35.00438 -120.18213 35502 ft 394 kts 308°
2026-04-23 14:52 35.02301 -120.20659 35729 ft 393 kts 308°
2026-04-23 14:52 35.04160 -120.23097 35946 ft 392 kts 308°
2026-04-23 14:52 35.06012 -120.25543 36068 ft 393 kts 307°
2026-04-23 14:52 35.07868 -120.28021 36110 ft 396 kts 308°
2026-04-23 14:53 35.11618 -120.32961 36140 ft 395 kts 308°
2026-04-23 14:53 35.15325 -120.37857 36139 ft 390 kts 307°
2026-04-23 14:54 35.18996 -120.42721 36136 ft 390 kts 307°
2026-04-23 14:54 35.22666 -120.47591 36150 ft 393 kts 308°
2026-04-23 14:55 35.26398 -120.52522 36146 ft 393 kts 307°
2026-04-23 14:55 35.30086 -120.57412 36128 ft 390 kts 307°
2026-04-23 14:56 35.33725 -120.62343 36143 ft 390 kts 307°
2026-04-23 14:56 35.37391 -120.67226 36148 ft 391 kts 307°
2026-04-23 14:57 35.41078 -120.72115 36153 ft 390 kts 307°
2026-04-23 14:57 35.44748 -120.76980 36117 ft 387 kts 306°
2026-04-23 14:58 35.48429 -120.81853 36173 ft 392 kts 311°
2026-04-23 14:58 35.52712 -120.86107 36184 ft 398 kts 317°
2026-04-23 14:59 35.57184 -120.90133 36214 ft 398 kts 317°
2026-04-23 14:59 35.61616 -120.94142 36166 ft 393 kts 316°
2026-04-23 15:00 35.65938 -120.98138 36157 ft 391 kts 316°
2026-04-23 15:00 35.70304 -121.02187 36162 ft 394 kts 316°
2026-04-23 15:01 35.74658 -121.06288 36195 ft 394 kts 315°
2026-04-23 15:01 35.79028 -121.10367 36171 ft 393 kts 316°
2026-04-23 15:02 35.83367 -121.14427 36176 ft 391 kts 316°
2026-04-23 15:02 35.87702 -121.18488 36187 ft 392 kts 316°
2026-04-23 15:03 35.92046 -121.22569 36196 ft 393 kts 315°
2026-04-23 15:03 35.96361 -121.26616 36185 ft 390 kts 315°
2026-04-23 15:04 36.00677 -121.30670 36177 ft 389 kts 315°
2026-04-23 15:04 36.05004 -121.34747 36189 ft 391 kts 316°
2026-04-23 15:05 36.09442 -121.38670 36175 ft 395 kts 319°
2026-04-23 15:05 36.11024 -121.39909 35864 ft 401 kts 320°
2026-04-23 15:05 36.14179 -121.42307 35147 ft 403 kts 321°
2026-04-23 15:06 36.15760 -121.43504 34688 ft 403 kts 321°
2026-04-23 15:06 36.18145 -121.45322 33921 ft 402 kts 321°
2026-04-23 15:06 36.20525 -121.47151 33105 ft 402 kts 321°
2026-04-23 15:06 36.22901 -121.48989 32323 ft 403 kts 321°
2026-04-23 15:07 36.25268 -121.50844 31550 ft 402 kts 321°
2026-04-23 15:07 36.27627 -121.52695 30769 ft 402 kts 321°
2026-04-23 15:07 36.29988 -121.54546 29983 ft 402 kts 321°
2026-04-23 15:07 36.32358 -121.56396 29135 ft 402 kts 322°
2026-04-23 15:08 36.34716 -121.58244 28363 ft 400 kts 322°
2026-04-23 15:08 36.37060 -121.60086 27596 ft 398 kts 322°
2026-04-23 15:08 36.39397 -121.61925 26840 ft 396 kts 322°
2026-04-23 15:09 36.43967 -121.65518 25914 ft 372 kts 322°
2026-04-23 15:09 36.46111 -121.67192 25833 ft 356 kts 322°
2026-04-23 15:09 36.48178 -121.68812 25752 ft 350 kts 322°
2026-04-23 15:09 36.50263 -121.70463 25677 ft 363 kts 322°
2026-04-23 15:10 36.52458 -121.72222 25048 ft 385 kts 322°
2026-04-23 15:10 36.54673 -121.74000 24256 ft 382 kts 322°
2026-04-23 15:10 36.56895 -121.75768 23362 ft 376 kts 322°
2026-04-23 15:10 36.59085 -121.77500 22489 ft 369 kts 323°
2026-04-23 15:11 36.61229 -121.79195 21739 ft 361 kts 323°
2026-04-23 15:11 36.63331 -121.80856 21036 ft 355 kts 323°
2026-04-23 15:11 36.65406 -121.82496 20368 ft 351 kts 323°
2026-04-23 15:11 36.67457 -121.84118 19698 ft 348 kts 324°
2026-04-23 15:12 36.69489 -121.85728 19215 ft 341 kts 324°
2026-04-23 15:12 36.71443 -121.87271 19149 ft 325 kts 324°
2026-04-23 15:12 36.73327 -121.88758 19088 ft 320 kts 324°
2026-04-23 15:12 36.75420 -121.89948 18940 ft 347 kts 339°
2026-04-23 15:13 36.77819 -121.90685 18429 ft 356 kts 344°
2026-04-23 15:13 36.80231 -121.91296 17748 ft 352 kts 345°
2026-04-23 15:13 36.82618 -121.91890 17063 ft 347 kts 345°
2026-04-23 15:13 36.84964 -121.92478 16423 ft 341 kts 345°
2026-04-23 15:14 36.87269 -121.93066 15856 ft 336 kts 345°
2026-04-23 15:14 36.89544 -121.93667 15337 ft 334 kts 345°
2026-04-23 15:14 36.91803 -121.94282 15080 ft 330 kts 345°
2026-04-23 15:14 36.94057 -121.94908 15005 ft 334 kts 345°
2026-04-23 15:15 36.96326 -121.95593 14833 ft 338 kts 343°
2026-04-23 15:15 36.98581 -121.96437 14377 ft 335 kts 341°
2026-04-23 15:15 37.00777 -121.97328 13897 ft 330 kts 341°
2026-04-23 15:15 37.02945 -121.98224 13395 ft 327 kts 341°
2026-04-23 15:16 37.05067 -121.99096 12934 ft 324 kts 341°
2026-04-23 15:16 37.07205 -121.99964 12499 ft 322 kts 341°
2026-04-23 15:16 37.09335 -122.00819 12086 ft 321 kts 341°
2026-04-23 15:16 37.11467 -122.01666 11690 ft 323 kts 342°
2026-04-23 15:17 37.13619 -122.02514 11265 ft 323 kts 342°
2026-04-23 15:17 37.15744 -122.03349 10850 ft 319 kts 342°
2026-04-23 15:17 37.17842 -122.04169 10572 ft 310 kts 342°
2026-04-23 15:17 37.19861 -122.04957 10430 ft 296 kts 343°
2026-04-23 15:18 37.21769 -122.05698 10290 ft 277 kts 342°
2026-04-23 15:18 37.23544 -122.06391 10040 ft 261 kts 342°
2026-04-23 15:18 37.25279 -122.07068 9400 ft 259 kts 343°
2026-04-23 15:18 37.26960 -122.07730 9017 ft 247 kts 343°
2026-04-23 15:19 37.28560 -122.08359 8642 ft 246 kts 343°
2026-04-23 15:19 37.30198 -122.09002 8327 ft 247 kts 343°
2026-04-23 15:19 37.31821 -122.09641 7932 ft 243 kts 343°
2026-04-23 15:19 37.33424 -122.10276 7445 ft 238 kts 343°
2026-04-23 15:20 37.34976 -122.10892 6937 ft 230 kts 343°
2026-04-23 15:20 37.36478 -122.11488 6451 ft 223 kts 343°
2026-04-23 15:20 37.37914 -122.12049 6180 ft 208 kts 344°
2026-04-23 15:20 37.39231 -122.12523 6130 ft 189 kts 345°
2026-04-23 15:21 37.40471 -122.12945 6051 ft 181 kts 346°
2026-04-23 15:21 37.41682 -122.13350 5961 ft 181 kts 346°
2026-04-23 15:21 37.42910 -122.13758 5891 ft 183 kts 346°
2026-04-23 15:21 37.44151 -122.14170 5796 ft 186 kts 346°
2026-04-23 15:22 37.45401 -122.14587 5729 ft 185 kts 346°
2026-04-23 15:22 37.46629 -122.14992 5563 ft 181 kts 346°
2026-04-23 15:22 37.47862 -122.15393 5268 ft 185 kts 346°
2026-04-23 15:22 37.49126 -122.15806 4937 ft 191 kts 346°
2026-04-23 15:23 37.50408 -122.16224 4592 ft 195 kts 346°
2026-04-23 15:23 37.51745 -122.16660 4222 ft 194 kts 346°
2026-04-23 15:23 37.53028 -122.17105 3878 ft 188 kts 338°
2026-04-23 15:23 37.54004 -122.18128 3533 ft 186 kts 304°
2026-04-23 15:24 37.54627 -122.19567 3116 ft 187 kts 298°
2026-04-23 15:24 37.55190 -122.21013 2829 ft 187 kts 299°
2026-04-23 15:24 37.55793 -122.22478 2541 ft 190 kts 299°
2026-04-23 15:24 37.56409 -122.23968 2233 ft 193 kts 299°
2026-04-23 15:25 37.57043 -122.25475 1940 ft 194 kts 300°
2026-04-23 15:25 37.57660 -122.26934 1631 ft 182 kts 299°
2026-04-23 15:25 37.58216 -122.28263 1381 ft 163 kts 298°
2026-04-23 15:25 37.58725 -122.29470 1117 ft 149 kts 298°
2026-04-23 15:26 37.59215 -122.30631 922 ft 156 kts 298°
2026-04-23 15:26 37.59733 -122.31852 839 ft 156 kts 298°
2026-04-23 15:26 37.60234 -122.33034 639 ft 151 kts 297°
2026-04-23 15:26 37.60706 -122.34197 398 ft 148 kts 297°
2026-04-23 15:27 37.61181 -122.35340 163 ft 145 kts 298°
2026-04-23 15:27 37.61651 -122.36430 30 ft 135 kts 298°
2026-04-23 15:27 37.62027 -122.37320 17 ft 83 kts 298°
2026-04-23 15:27 37.62189 -122.37737 23 ft 31 kts 280°
2026-04-23 15:28 37.62206 -122.37879 22 ft 12 kts 277°
2026-04-23 15:28 37.62217 -122.37984 25 ft 14 kts 277°
2026-04-23 15:28 37.62229 -122.38126 26 ft 20 kts 271°
2026-04-23 15:28 37.62186 -122.38287 22 ft 19 kts 219°
2026-04-23 15:29 37.62086 -122.38335 24 ft 14 kts 193°
2026-04-23 15:29 37.61986 -122.38246 24 ft 20 kts 118°
2026-04-23 15:29 37.61918 -122.38089 23 ft 19 kts 117°
2026-04-23 15:29 37.61831 -122.37974 23 ft 19 kts 154°
2026-04-23 15:30 37.61692 -122.37956 18 ft 22 kts 196°
2026-04-23 15:30 37.61550 -122.38040 15 ft 23 kts 207°
2026-04-23 15:30 37.61411 -122.38133 17 ft 23 kts 208°
2026-04-23 15:30 37.61270 -122.38226 18 ft 23 kts 207°
2026-04-23 15:31 37.61143 -122.38311 19 ft 13 kts 208°
2026-04-23 15:31 37.61079 -122.38359 18 ft 10 kts 224°
2026-04-23 15:31 37.61058 -122.38418 19 ft 4 kts 261°
2026-04-23 15:31 37.61060 -122.38447 20 ft 3 kts 281°
2026-04-23 15:32 37.61068 -122.38478 21 ft 4 kts 296°
2026-04-23 15:32 37.61074 -122.38489 20 ft 0 kts 307°